DW0354 Weather Reports


Display with metric or nautical units.
time (UTC)temp
F
wind
direction
speed
MPH
gust
MPH
rain 1hr
in
rain 24hr
in
rain mn
in
humidity
%
barometer
mb
20260506174523 79 27 4.0 9.0 0.00 0.00 0.00 74 1011.6
20260506173021 77 81 3.0 10.0 0.00 0.00 0.00 75 1011.7
20260506171534 75 45 3.0 8.0 0.00 0.00 0.00 79 1011.6
20260506170025 75 338 3.0 8.0 0.00 0.00 0.00 76 1011.8
20260506164514 78 78 4.0 7.0 0.00 0.00 0.00 81 1011.8
20260506163014 78 25 2.0 6.0 0.00 0.00 0.00 80 1011.6
20260506161521 78 30 0.0 4.0 0.00 0.00 0.00 80 1011.7
20260506160023 78 61 2.0 6.0 0.00 0.00 0.00 81 1011.5
20260506154529 78 43 3.0 7.0 0.00 0.00 0.00 81 1011.5
20260506153016 77 5 2.0 3.0 0.00 0.00 0.00 84 1011.3
20260506151524 76 92 1.0 4.0 0.00 0.00 0.00 85 1011.0
20260506150021 75 114 1.0 5.0 0.00 0.00 0.00 87 1010.9
20260506144525 74 110 2.0 6.0 0.00 0.00 0.00 89 1010.6
20260506141520 74 97 0.0 1.0 0.00 0.00 0.00 90 1010.9
20260506140026 74 98 0.0 2.0 0.00 0.00 0.00 91 1010.5
20260506134523 73 117 2.0 6.0 0.00 0.00 0.00 91 1009.8
20260506133030 73 88 1.0 4.0 0.00 0.00 0.00 91 1009.5
20260506131526 73 105 0.0 4.0 0.00 0.00 0.00 91 1009.4
20260506130019 73 126 0.0 2.0 0.00 0.00 0.00 92 1009.2
20260506124523 73 113 0.0 7.0 0.00 0.00 0.00 92 1009.0
20260506123026 73 108 1.0 4.0 0.00 0.00 0.00 92 1009.0
20260506121527 73 87 1.0 3.0 0.00 0.00 0.00 91 1009.0
20260506120020 73 104 0.0 0.0 0.00 0.00 0.00 91 1009.0
20260506114513 73 186 0.0 0.0 0.00 0.00 0.00 91 1009.0
20260506113008 73 186 0.0 0.0 0.00 0.00 0.00 91 1009.0
20260506111511 73 186 0.0 0.0 0.00 0.00 0.00 91 1009.1
20260506110020 73 186 0.0 2.0 0.00 0.00 0.00 91 1009.1
20260506104519 73 168 0.0 4.0 0.00 0.00 0.00 91 1009.1
20260506103007 73 199 0.0 5.0 0.00 0.00 0.00 91 1008.9
20260506101516 73 174 0.0 4.0 0.00 0.00 0.00 91 1008.9
20260506100022 73 190 3.0 8.0 0.00 0.00 0.00 91 1008.9
20260506094520 73 169 2.0 7.0 0.00 0.00 0.00 90 1008.9
20260506093024 73 155 1.0 7.0 0.00 0.00 0.00 90 1008.8
20260506091510 73 213 2.0 5.0 0.00 0.00 0.00 89 1008.6
20260506090018 74 184 2.0 7.0 0.00 0.00 0.00 89 1008.6
20260506084515 74 165 2.0 9.0 0.00 0.00 0.00 89 1008.4
20260506083018 74 135 3.0 10.0 0.00 0.00 0.00 89 1008.5
20260506081524 74 144 3.0 11.0 0.00 0.00 0.00 89 1008.4
20260506073017 74 138 0.0 8.0 0.00 0.00 0.00 88 1008.9
20260506071524 74 173 2.0 8.0 0.00 0.00 0.00 88 1009.0
20260506061524 75 175 2.0 8.0 0.00 0.00 0.00 87 1009.2
20260506044533 75 152 0.0 5.0 0.00 0.00 0.00 87 1009.1
20260506043014 75 131 2.0 8.0 0.00 0.00 0.00 87 1009.0
20260506041519 75 132 2.0 6.0 0.00 0.00 0.00 87 1008.9
20260506040021 75 113 1.0 4.0 0.00 0.00 0.00 87 1008.8
20260506034524 75 98 1.0 5.0 0.00 0.00 0.00 86 1008.6
20260506033033 75 103 0.0 3.0 0.00 0.00 0.00 85 1008.4
20260506031529 76 90 0.0 0.0 0.00 0.00 0.00 84 1008.2
20260506030046 76 178 0.0 3.0 0.00 0.00 0.00 83 1007.8
20260506024529 77 105 0.0 0.0 0.00 0.00 0.00 82 1007.6
20260506023027 77 98 1.0 3.0 0.00 0.00 0.00 81 1007.4
20260506021519 78 117 1.0 6.0 0.00 0.00 0.00 80 1007.3
20260506020020 78 157 2.0 5.0 0.00 0.00 0.00 79 1007.0
20260506014524 79 124 2.0 7.0 0.00 0.00 0.00 77 1006.7
20260506013025 80 115 2.0 4.0 0.00 0.00 0.00 74 1006.5
20260506011534 81 124 0.0 0.0 0.00 0.00 0.00 71 1006.5
20260506010019 82 130 0.0 0.0 0.00 0.00 0.00 70 1006.4
20260506004536 83 120 0.0 0.0 0.00 0.00 0.00 69 1006.5
20260506003032 84 159 0.0 0.0 0.00 0.00 0.00 68 1006.4
20260506001528 84 168 0.0 0.0 0.00 0.00 0.00 67 1006.5
20260506000030 85 193 1.0 3.0 0.00 0.00 0.00 66 1006.4
20260505234522 85 180 2.0 7.0 0.00 0.00 0.00 64 1006.4
20260505233007 85 188 2.0 9.0 0.00 0.00 0.00 65 1006.3
20260505231520 85 186 2.0 7.0 0.00 0.00 0.00 64 1006.3
20260505230015 85 165 1.0 8.0 0.00 0.00 0.00 65 1006.2
20260505224517 85 204 2.0 8.0 0.00 0.00 0.00 65 1006.2
20260505223024 84 172 4.0 10.0 0.00 0.00 0.00 65 1006.1
20260505221508 85 198 3.0 8.0 0.00 0.00 0.00 64 1006.3
20260505220015 85 122 5.0 12.0 0.00 0.00 0.00 63 1006.2
20260505214518 85 169 3.0 11.0 0.00 0.00 0.00 65 1006.2
20260505213022 85 163 3.0 9.0 0.00 0.00 0.00 65 1006.5
20260505211506 85 107 5.0 11.0 0.00 0.00 0.00 65 1006.7
20260505210014 86 181 2.0 10.0 0.00 0.00 0.00 65 1006.9
20260505204517 86 115 3.0 11.0 0.00 0.00 0.00 64 1007.3
20260505203027 85 154 3.0 8.0 0.00 0.00 0.00 66 1007.5
20260505201532 85 180 3.0 9.0 0.00 0.00 0.00 66 1007.8
20260505200014 84 199 4.0 12.0 0.00 0.00 0.00 66 1008.0
20260505194513 83 189 5.0 12.0 0.00 0.00 0.00 67 1008.1
20260505193028 83 188 5.0 10.0 0.00 0.00 0.00 68 1008.1
20260505191522 82 226 3.0 7.0 0.00 0.00 0.00 69 1008.3
20260505190035 81 173 3.0 10.0 0.00 0.00 0.00 71 1008.5
20260505184522 81 188 4.0 11.0 0.00 0.00 0.00 71 1008.9
20260505183027 80 222 2.0 10.0 0.00 0.00 0.00 75 1009.0
20260505181521 79 184 4.0 9.0 0.00 0.00 0.00 74 1009.1
20260505180036 78 234 4.0 9.0 0.00 0.00 0.00 76 1009.3